Location: STAR School
(35.3054°N, 111.2976°W)
Time: 12:53:37
(UTC-07:00)

Transit 2A Rocket - Pass Details

Date: 26 May 2019
Orbit: 586 x 917 km, 66.7° (Epoch: 17 June)

Event Time Altitude Azimuth Distance (km) Brightness Sun altitude
Rises 02:43:28 0° 328° (NNW) 3,341 8.6 -24.4°
Reaches altitude 10° 02:46:03 10° 325° (NW) 2,354 7.7 -24.1°
Enters shadow 02:50:55 54° 267° (W) 890 5.0 -23.5°
